Location: Altamira
(10.5079°N, 66.8544°W)
Time: 02:32:34
(UTC+00:00)

CORIOLIS - Pass Details

Date: 05 July 2022
Orbit: 818 x 838 km, 98.7° (Epoch: 08 August)

Event Time Altitude Azimuth Distance (km) Brightness Sun altitude
Rises 23:36:22 0° 209° (SSW) 3,349 7.4 -10.4°
Reaches altitude 10° 23:40:29 10° 240° (WSW) 2,412 7.1 -11.3°
Maximum altitude 23:42:16 12° 260° (W) 2,295 7.3 -11.7°
Drops below altitude 10° 23:44:03 10° 280° (W) 2,409 7.9 -12.1°
Sets 23:48:11 0° 312° (NW) 3,339 9.0 -13.0°
